This is the latest recevied weather packets stored in our database for station/object KC9ZAR-13. If no packets are shown the sender has not sent any weather packets the latest 10 day(s).
| Time | Temp. | Humidity | Pressure | Rain* | Wind** | Luminosity | Snow |
|---|---|---|---|---|---|---|---|
| 1777473006 | 15° C | 92% | 1010.7 hPa | 0 mm | - | 0 W/m² | - |
| 1777472705 | 15° C | 94% | 1010.6 hPa | 0 mm | - | 0 W/m² | - |
| 1777471505 | 13.89° C | 96% | 1010.5 hPa | 0 mm | - | 0 W/m² | - |
| 1777470606 | 13.33° C | 96% | 1010.4 hPa | 0 mm | - | 0 W/m² | - |
| 1777469405 | 13.33° C | 96% | 1010.4 hPa | 0 mm | - | 0 W/m² | - |
| 1777466405 | 13.33° C | 96% | 1009.5 hPa | 0.51 mm | - | 0 W/m² | - |
| 1777462805 | 13.33° C | 96% | 1009.4 hPa | 0 mm | - | 0 W/m² | - |
| 1777461305 | 13.33° C | 96% | 1009.4 hPa | 0 mm | - | 0 W/m² | - |
| 1777456505 | 13.89° C | 96% | 1008.8 hPa | 0.25 mm | - | 0 W/m² | - |
| 1777455905 | 14.44° C | 96% | 1008.7 hPa | 0.25 mm | - | 0 W/m² | - |
| 1777452905 | 15.56° C | 96% | 1008.6 hPa | 0 mm | - | 0 W/m² | - |
| 1777451705 | 15.56° C | 95% | 1008.5 hPa | 0 mm | - | 0 W/m² | - |
| 1777450805 | 16.11° C | 95% | 1008.6 hPa | 0 mm | - | 0 W/m² | - |
| 1777450505 | 16.11° C | 96% | 1008.5 hPa | 0 mm | - | 0 W/m² | - |
| 1777448705 | 16.11° C | 95% | 1008.1 hPa | 0 mm | - | 0 W/m² | - |
| 1777448405 | 16.67° C | 95% | 1008.2 hPa | 0 mm | - | 0 W/m² | - |
| 1777445105 | 16.67° C | 95% | 1009.2 hPa | 0.51 mm | - | 0 W/m² | - |
| 1777444805 | 16.67° C | 95% | 1009.2 hPa | 0.51 mm | - | 0 W/m² | - |
| 1777443605 | 16.67° C | 94% | 1009.4 hPa | 1.02 mm | - | 0 W/m² | - |
| 1777443306 | 16.67° C | 94% | 1009.5 hPa | 2.54 mm | - | 0 W/m² | - |
| 1777439105 | 16.67° C | 91% | 1010.7 hPa | 8.64 mm | - | 0 W/m² | - |
| 1777437605 | 17.78° C | 89% | 1011.1 hPa | 1.27 mm | - | 0 W/m² | - |
| 1777436705 | 17.78° C | 89% | 1011.1 hPa | 0.25 mm | - | 0 W/m² | - |
| 1777435805 | 17.78° C | 88% | 1011 hPa | 0 mm | - | 0 W/m² | - |
| 1777435205 | 17.78° C | 88% | 1010.6 hPa | 0 mm | - | 0 W/m² | - |
* Rain latest hour (hover to see other rain measurements)
** Current wind speed in m/s (hover to see current wind gust speed)